Location: Les Salelles
(44.4192°N, 4.1044°E)
Time: 16:20:02
(UTC+00:00)

BREEZE-M DEB (TANK) - Pass Details

Date: 20 January 2021
Orbit: 439 x 13843 km, 45.9° (Epoch: 26 February)

Event Time Altitude Azimuth Distance (km) Brightness Sun altitude
Rises 17:03:52 0° 286° (WNW) 2,900 6.9 -5.2°
Reaches altitude 10° 17:06:22 10° 277° (W) 1,666 5.9 -5.6°
Maximum altitude 17:09:14 36° 207° (SSW) 710 3.5 -6.1°
Drops below altitude 10° 17:12:17 10° 137° (SE) 1,768 4.7 -6.6°
Sets 17:15:03 0° 129° (SE) 3,126 5.9 -7.1°
